Northeast Philadelphia, PA

1:29 AM EDT on April 20, 2018 (GMT -0400)
Northeast Philadelphia

Weather History for KPNE - March, 2014

Change the Weather History Date:

Sunday, March 2, 2014

  Actual Average Record
Temperature  
Mean Temperature 38 °F -  
Max Temperature 42 °F 45 °F 66 °F (1997)
Min Temperature 35 °F 28 °F 1 °F (2008)
Degree Days  
Heating Degree Days 26    
Moisture  
Dew Point 29 °F    
Average Humidity 72    
Maximum Humidity 89    
Minimum Humidity 45    
Precipitation  
Precipitation 0.06 in - - ()
Sea Level Pressure  
Sea Level Pressure 30.08 in    
Wind  
Wind Speed 3 mph (NNW)    
Max Wind Speed 12 mph    
Max Gust Speed -    
Visibility 8 miles    
Events Rain    
Averages and records for this station are not official NWS values.
T = Trace of Precipitation, MM = Missing Value Source: NWS Daily Summary

Daily Weather History Graph

Daily Weather History Graph

Search for Another Location

Airport or City:

Astronomy

Mar. 02, 2014 Rise Set
Actual Time 6:31 AM EST 5:52 PM EST
Civil Twilight 6:04 AM EST 6:20 PM EST
Nautical Twilight 5:33 AM EST 6:51 PM EST
Astronomical Twilight 5:02 AM EST 7:23 PM EST
Moon 7:01 AM EST (3/2) 7:46 PM EST (3/2)
Length of Visible Light 12h 15m
Length of Day
11h 20m
Waxing Crescent, 3% of the Moon is Illuminated
Mar 2
Waxing Crescent
Mar 8
First Quarter
Mar 16
Full
Mar 23
Last Quarter
Mar 30
New

Hourly Weather History & Observations

Time (EST) Temp. Windchill Dew Point Humidity Pressure Visibility Wind Dir Wind Speed Gust Speed Precip Events Conditions
12:54 AM 35.1 °F - 21.9 °F 59% 30.18 in 10.0 mi Calm Calm - N/A   Clear
1:54 AM 35.1 °F 31.0 °F 26.1 °F 70% 30.16 in 10.0 mi SW 4.6 mph - N/A   Overcast
2:54 AM 35.1 °F 32.2 °F 28.0 °F 76% 30.14 in 10.0 mi SSW 3.5 mph - N/A   Overcast
3:54 AM 35.1 °F - 28.0 °F 76% 30.12 in 10.0 mi Calm Calm - N/A   Overcast
4:54 AM 35.1 °F 32.2 °F 28.9 °F 78% 30.11 in 8.0 mi SSE 3.5 mph - N/A   Overcast
5:54 AM 36.0 °F 33.3 °F 28.9 °F 76% 30.11 in 9.0 mi NW 3.5 mph - N/A   Overcast
6:54 AM 36.0 °F - 30.0 °F 79% 30.10 in 8.0 mi Calm Calm - N/A   Overcast
7:54 AM 36.0 °F 33.3 °F 28.9 °F 76% 30.10 in 8.0 mi SE 3.5 mph - N/A   Overcast
8:54 AM 37.0 °F - 28.0 °F 70% 30.12 in 8.0 mi Calm Calm - N/A   Overcast
9:54 AM 39.0 °F - 28.9 °F 67% 30.11 in 8.0 mi Calm Calm - N/A   Overcast
10:54 AM 39.9 °F 35.8 °F 25.0 °F 55% 30.10 in 10.0 mi NW 5.8 mph - N/A   Overcast
11:54 AM 42.1 °F 39.2 °F 21.9 °F 45% 30.07 in 10.0 mi North 4.6 mph - N/A   Overcast
12:54 PM 42.1 °F 39.2 °F 24.1 °F 49% 30.04 in 10.0 mi NE 4.6 mph - N/A   Overcast
1:54 PM 41.0 °F 38.0 °F 28.0 °F 60% 30.02 in 9.0 mi NNE 4.6 mph - 0.00 in Rain Light Rain
2:54 PM 42.1 °F - 26.1 °F 53% 30.03 in 9.0 mi Calm Calm - 0.00 in   Overcast
3:54 PM 42.1 °F 38.4 °F 28.0 °F 58% 30.03 in 7.0 mi North 5.8 mph - 0.00 in Rain Light Rain
4:54 PM 39.0 °F 34.0 °F 32.0 °F 76% 30.05 in 4.0 mi North 6.9 mph - 0.02 in Rain Light Rain
5:04 PM 39.0 °F 33.4 °F 32.0 °F 76% 30.04 in 4.0 mi North 8.1 mph - 0.01 in Rain Light Rain
5:16 PM 37.9 °F 33.5 °F 33.1 °F 83% 30.05 in 3.0 mi NNW 5.8 mph - 0.01 in Rain Light Rain
5:54 PM 37.9 °F 32.7 °F 33.1 °F 83% 30.05 in 4.0 mi North 6.9 mph - 0.03 in Rain Light Rain
6:54 PM 37.0 °F 30.4 °F 32.0 °F 82% 30.05 in 7.0 mi North 9.2 mph - 0.01 in Rain Light Rain
7:35 PM 36.0 °F 33.3 °F 33.1 °F 89% 30.04 in 7.0 mi NNW 3.5 mph - 0.00 in   Overcast
7:54 PM 36.0 °F 32.1 °F 32.0 °F 86% 30.04 in 7.0 mi NW 4.6 mph - 0.00 in   Overcast
8:54 PM 36.0 °F 32.1 °F 32.0 °F 86% 30.05 in 8.0 mi NW 4.6 mph - N/A   Overcast
9:54 PM 35.1 °F 28.6 °F 30.9 °F 85% 30.05 in 7.0 mi NNW 8.1 mph - 0.00 in   Overcast
10:54 PM 35.1 °F 28.6 °F 30.0 °F 82% 30.04 in 9.0 mi North 8.1 mph - N/A   Overcast
11:54 PM 35.1 °F 26.9 °F 26.1 °F 70% 30.03 in 10.0 mi North 11.5 mph - N/A   Overcast